Simultaneous Nadir Overpasses (SNOs) Predictions

Prediction of SNOs between AQUA and METOP-C Satellite Orbit:

Table of predicted SNOs for the next 14.0 days since TLE Epoch: 9/9/2023
Index Date (AQUA) Time (AQUA) Lat,Lon (AQUA) SZA (AQUA ) Date (METOP-C) Time (METOP-C) Lat,Lon (METOP-C) SZA (METOP-C ) Distance(km) Time Diff (sec)
1 09/09/2023 18:49:31 -74.18, 75.23 111.10 09/09/2023 18:48:25 -74.09, 72.40 111.14 86.60 66
2 09/09/2023 19:39:07 74.74,-118.50 69.50 09/09/2023 19:38:52 74.76,-118.53 69.52 2.51 15
3 09/09/2023 20:28:32 -74.83, 48.93 110.41 09/09/2023 20:29:32 -74.80, 48.90 110.44 3.49 60
4 09/12/2023 12:41:51 -74.76, 165.80 109.46 09/12/2023 12:41:09 -74.74, 165.83 109.48 2.75 42
5 09/12/2023 13:31:17 74.82, -26.70 70.61 09/12/2023 13:31:48 74.82, -26.62 70.61 2.40 31
6 09/15/2023 05:44:35 74.75, 90.16 71.57 09/15/2023 05:43:25 74.74, 90.28 71.56 3.46 70
7 09/15/2023 06:33:59 -74.79,-102.27 108.39 09/15/2023 06:34:05 -74.79,-102.28 108.39 0.42 6
8 09/15/2023 07:23:29 75.05, 64.70 71.90 09/15/2023 07:24:39 75.11, 65.95 71.94 36.47 70
9 09/17/2023 23:36:42 74.78,-177.91 72.66 09/17/2023 23:36:21 74.78,-177.86 72.66 1.49 21
10 09/18/2023 00:26:06 -74.82, -10.34 107.30 09/18/2023 00:27:01 -74.83, -10.40 107.29 2.61 55
11 09/20/2023 16:39:21 -74.76, 106.53 106.33 09/20/2023 16:38:37 -74.75, 106.47 106.33 1.63 44
12 09/20/2023 17:28:47 74.82, -85.99 73.75 09/20/2023 17:29:16 74.81, -86.02 73.75 1.01 29



Historial Predications of SNOs between AQUA and METOP-C
